[[{"header":{"parameterUnit":"m.s-1","parameterCategory":1,"la1":30.2991,"la2":30.254,"lo1":-89.0895,"lo2":-89.0444,"dy":0.0017,"dx":0.0017,"nx":28,"ny":28,"refTime":"2024-07-14T21:00:00:Z","depth":0,"parameterNumber":2,"parameterNumberName":"U-component_of_WINDS"},"data":[0,0,0,0,0,0,0,0,0,0,0,0,0,0,0,0,0,0,0,0,0,0,0,0,0,0,0,0,0,0,0,0,0,0,0,0,0,0,0,0,0,0,0,0,0,0,0,0,0,0,0,0,0,0,0,0,0,0,3.4487,3.4488,0,3.4582,3.4583,3.4584,3.4503,3.45,3.4496,3.4493,3.4592,3.4598,3.4604,0,0,0,0,0,0,0,0,0,0,0,0,0,3.4235,3.424,3.4487,3.4488,3.4489,3.4582,3.4583,3.4584,3.4504,3.45,3.4495,3.4492,3.4591,3.4597,3.4604,0,0,0,0,0,0,0,0,0,0,0,0,0,3.4339,3.4242,3.4486,3.446,3.4458,3.4581,3.4583,3.4585,3.4505,3.4499,3.4494,3.449,3.4588,3.4597,3.4605,3.476,0,0,3.4632,3.4636,0,0,0,0,0,0,0,0,3.4333,3.4348,3.4463,3.4462,3.4461,3.4525,3.4531,3.4644,3.4506,3.4487,3.4493,3.4487,3.4574,3.4584,3.4613,3.4765,3.4769,3.4633,3.4638,3.4641,3.4644,0,0,0,0,0,0,0,3.4326,3.4344,3.4524,3.4464,3.4463,3.4443,3.4453,3.4552,3.4558,3.4488,3.4483,3.4495,3.4573,3.4605,3.4615,3.477,3.4632,3.464,3.4645,3.4649,3.5051,3.5056,0,0,0,0,0,0,3.4322,3.4338,3.4521,3.4527,3.4383,3.4452,3.4462,3.451,3.4557,3.4559,3.4499,3.4491,3.4592,3.4605,3.4618,3.48,3.4641,3.465,3.4655,3.5046,3.5052,3.5058,0,0,0,0,0,0,3.4317,3.4339,3.4517,3.4431,3.4453,3.4462,3.4516,3.4514,3.4546,3.4565,3.4566,3.4531,3.4589,3.4606,3.4724,3.4802,3.4653,3.4661,3.5039,3.5048,3.5055,3.5166,0,0,0,0,0,0,3.431,3.4337,3.4396,3.4433,3.4457,3.4623,3.4521,3.452,3.4561,3.4551,3.4594,3.4597,3.4586,3.4712,3.4733,3.4811,3.4668,3.5032,3.5043,3.5053,3.5156,3.5177,3.5196,0,0,0,0,0,3.4301,3.4425,3.44,3.4422,3.4531,3.4627,3.4641,3.4626,3.4568,3.4626,3.4638,3.4595,3.4791,3.4725,3.4748,3.483,3.5027,3.504,3.5052,3.5147,3.5173,3.5195,0,0,0,0,0,0,3.4397,3.4429,3.4402,3.4541,3.4582,3.4614,3.4687,3.4655,3.4714,3.4702,3.4681,3.4692,3.4816,3.4835,3.4761,3.4981,3.4899,3.4917,3.4964,3.4989,3.5008,3.5,3.4675,0,0,0,0,0,3.4435,3.451,3.4534,3.4654,3.4676,3.4679,3.472,3.4705,3.4747,3.4764,3.4784,3.4827,3.4897,3.4944,3.5011,3.5158,3.5166,3.5226,3.5246,3.5263,3.5277,3.5355,3.5381,3.5099,3.5099,3.5098,0,0,3.4513,3.454,3.4589,3.4674,3.4704,3.4782,3.4694,3.4781,3.4838,3.4777,3.4889,3.4907,3.4953,3.5086,3.5146,3.5106,3.5357,3.5278,3.5291,3.5297,3.537,3.5397,3.5421,3.5107,3.5106,3.5104,0,0,3.4694,3.4723,3.4825,3.4857,3.4903,3.4903,3.4928,3.4965,3.4973,3.5086,3.5041,3.5109,3.5232,3.5266,3.5299,3.5493,3.5455,3.5515,3.5619,3.5695,3.5717,3.5736,3.5803,3.5828,3.553,3.5531,3.5531,0,3.4786,3.4901,3.4882,3.4972,3.501,3.4958,3.5061,3.5092,3.5158,3.5186,3.514,3.5291,3.5319,3.5458,3.5505,3.5535,3.5561,3.5509,3.5715,3.5735,3.5753,3.5816,3.5841,3.5537,3.5537,3.5536,3.5535,0,3.501,3.5091,3.5168,3.5231,3.5279,3.5375,3.537,3.542,3.5401,3.5406,3.5521,3.5552,3.5622,3.5655,3.5638,3.5792,3.5765,3.5718,3.5635,3.5787,3.5846,3.587,3.5547,3.5545,3.5543,3.5541,0,0,3.5255,3.5305,3.5334,3.5361,3.5407,3.5469,3.5563,3.5631,3.5673,3.5721,3.5797,3.5902,3.5858,3.5896,3.5882,3.5948,3.6097,3.5893,3.5893,3.5927,3.6266,3.6299,3.6328,3.6072,3.6077,3.6081,3.6261,0,3.5436,3.5597,3.5582,3.5735,3.5808,3.5759,3.584,3.5877,3.5885,3.5948,3.5957,3.603,3.5968,3.599,3.6054,3.6065,3.6164,3.6052,3.6142,3.6146,3.613,3.6359,3.6396,3.6564,3.6284,3.6288,3.6291,0,3.5669,3.5723,3.5883,3.5916,3.5946,3.6019,3.6079,3.6141,3.6182,3.6182,3.6224,3.6198,3.6292,3.6208,3.6336,3.626,3.6296,3.6308,3.6314,3.632,3.6226,3.637,3.6618,3.6643,3.6328,3.6325,3.6322,0,3.5828,3.5941,3.605,3.6076,3.6118,3.617,3.619,3.6226,3.6268,3.6321,3.6347,3.6411,3.6445,3.6495,3.6487,3.6427,3.6616,3.6533,3.6618,3.6619,3.6659,3.6656,3.6914,3.6686,3.6686,3.6685,3.6685,0,3.6031,3.613,3.6122,3.6189,3.6298,3.6281,3.6389,3.6403,3.6435,3.6504,3.6467,3.6532,3.6518,3.6583,3.6578,3.6683,3.6699,3.6702,3.6699,3.6704,3.6703,3.6726,3.6713,3.6692,3.6691,3.6689,3.6688,0,3.6227,3.6226,3.6341,3.6372,3.6381,3.646,3.6486,3.6549,3.6553,3.6641,3.666,3.6667,3.6741,3.6738,3.6824,3.682,3.6948,3.6933,3.6934,3.693,3.7015,3.7006,3.7295,3.7331,3.7082,3.7084,3.7086,0,3.6356,3.643,3.6468,3.6511,3.6534,3.6604,3.6645,3.6631,3.6676,3.6727,3.6784,3.6854,3.691,3.7031,3.7044,3.7108,3.7092,3.7189,3.7102,3.7104,3.7091,3.7086,3.7092,3.7206,3.7209,3.7211,3.7213,0,3.6583,3.6578,3.6639,3.67,3.675,3.6797,3.684,3.6877,3.6867,3.6919,3.6994,3.7037,3.7123,3.7193,3.7254,3.7275,3.7242,3.724,3.7263,3.7268,3.7265,3.7265,3.6978,3.7233,3.7231,3.723,3.7229,3.7228,3.6748,3.6811,3.6847,3.6915,3.6946,3.6987,3.7046,3.7058,3.712,3.7187,3.7175,3.7259,3.7297,3.7375,3.7402,3.7467,3.7432,3.7466,3.7474,3.7482,3.749,3.7256,3.7478,3.7478,3.7477,3.7477,3.7476,0,3.6971,3.6991,3.7055,3.7115,3.7169,3.7133,3.7178,3.7226,3.7299,3.7337,3.7392,3.7477,3.7545,3.7562,3.7627,3.7676,3.7662,3.7693,3.7688,3.7693,3.7519,3.7491,3.7703,3.7703,3.7703,3.7703,3.7703,3.7703,3.7093,3.7198,3.7197,3.7316,3.7335,3.7416,3.7445,3.7482,3.7512,3.7608,3.7664,3.7674,3.7704,3.777,3.783,3.7834,3.7858,3.7895,3.7892,3.7729,3.7706,3.7684,3.7658,3.7901,3.7902,3.8061,3.8063,3.8064]},{"header":{"parameterUnit":"m.s-1","parameterCategory":1,"la1":30.2991,"la2":30.254,"lo1":-89.0895,"lo2":-89.0444,"dy":0.0017,"dx":0.0017,"nx":28,"ny":28,"refTime":"2024-07-14T21:00:00:Z","depth":0,"parameterNumber":3,"parameterNumberName":"V-component_of_WINDS"},"data":[0,0,0,0,0,0,0,0,0,0,0,0,0,0,0,0,0,0,0,0,0,0,0,0,0,0,0,0,0,0,0,0,0,0,0,0,0,0,0,0,0,0,0,0,0,0,0,0,0,0,0,0,0,0,0,0,0,0,1.2308,1.2309,0,1.24,1.2401,1.2402,1.24,1.2399,1.2398,1.2397,1.2493,1.2496,1.25,0,0,0,0,0,0,0,0,0,0,0,0,0,1.2131,1.2134,1.2308,1.2309,1.231,1.24,1.2401,1.2403,1.2401,1.2399,1.2398,1.2396,1.2492,1.2496,1.25,0,0,0,0,0,0,0,0,0,0,0,0,0,1.2214,1.2135,1.2308,1.232,1.2322,1.24,1.2401,1.2403,1.2401,1.2399,1.2397,1.2395,1.249,1.2495,1.2501,1.2573,0,0,1.2518,1.2521,0,0,0,0,0,0,0,0,1.2209,1.2221,1.2317,1.2319,1.2322,1.2387,1.2374,1.246,1.2401,1.2371,1.2397,1.2394,1.2459,1.2467,1.2489,1.2578,1.2582,1.2519,1.2522,1.2524,1.2526,0,0,0,0,0,0,0,1.2204,1.2217,1.2345,1.2319,1.2321,1.2321,1.2331,1.239,1.2425,1.2374,1.2374,1.2384,1.246,1.2483,1.2491,1.2583,1.2518,1.2523,1.2527,1.2529,1.2735,1.2737,0,0,0,0,0,0,1.2195,1.2212,1.2342,1.2347,1.226,1.2326,1.2337,1.2368,1.2424,1.2431,1.2386,1.2384,1.2475,1.2484,1.2494,1.2582,1.2524,1.253,1.2533,1.2732,1.2735,1.2737,0,0,0,0,0,0,1.2191,1.2207,1.2338,1.228,1.2296,1.2331,1.2366,1.2371,1.2394,1.2433,1.2439,1.2403,1.2474,1.2486,1.2553,1.2585,1.2532,1.2537,1.273,1.2733,1.2736,1.2757,0,0,0,0,0,0,1.2186,1.2205,1.2233,1.228,1.2299,1.2395,1.2368,1.2374,1.2403,1.2402,1.2451,1.2458,1.2473,1.2545,1.2559,1.2592,1.2542,1.2727,1.2731,1.2735,1.2754,1.2761,1.2766,0,0,0,0,0,1.218,1.2236,1.2234,1.225,1.2335,1.2397,1.2408,1.2424,1.2406,1.2434,1.2459,1.2456,1.2579,1.2552,1.2567,1.2602,1.2725,1.273,1.2735,1.2751,1.2759,1.2766,0,0,0,0,0,0,1.2193,1.2242,1.2241,1.2314,1.2351,1.2396,1.2433,1.2433,1.2476,1.2473,1.2491,1.2503,1.2569,1.2592,1.2561,1.2674,1.265,1.2658,1.2657,1.2665,1.2671,1.2664,1.2546,0,0,0,0,0,1.2204,1.225,1.2291,1.2351,1.237,1.2398,1.2426,1.2435,1.2474,1.249,1.252,1.2559,1.2606,1.2637,1.2683,1.2757,1.2767,1.2789,1.2795,1.28,1.2807,1.2847,1.2857,1.2753,1.2753,1.2753,0,0,1.2228,1.226,1.2289,1.2355,1.2384,1.2432,1.2411,1.2463,1.2498,1.2498,1.2562,1.2586,1.263,1.2701,1.2733,1.2722,1.2838,1.2806,1.281,1.2814,1.2853,1.2863,1.2871,1.2756,1.2756,1.2755,0,0,1.2295,1.2324,1.2377,1.2407,1.2452,1.247,1.2483,1.2528,1.2543,1.2608,1.2609,1.2651,1.2732,1.2764,1.279,1.2868,1.2866,1.2882,1.2915,1.2954,1.2962,1.297,1.2997,1.3006,1.2889,1.2889,1.2889,0,1.2319,1.239,1.2405,1.2456,1.2485,1.2486,1.254,1.2568,1.2626,1.2646,1.2632,1.2733,1.2763,1.2841,1.2859,1.2881,1.2896,1.2877,1.296,1.2967,1.2974,1.3,1.3011,1.289,1.289,1.289,1.289,0,1.2417,1.2466,1.2503,1.2558,1.2591,1.2643,1.2666,1.2698,1.2703,1.2723,1.2788,1.2824,1.2877,1.2896,1.2903,1.2974,1.2965,1.2956,1.2932,1.2986,1.301,1.302,1.2893,1.2892,1.2892,1.2891,0,0,1.2496,1.2557,1.257,1.2594,1.2643,1.2682,1.2734,1.2784,1.2811,1.285,1.2894,1.2962,1.2953,1.2983,1.2993,1.3027,1.3085,1.3013,1.3014,1.3025,1.3165,1.3172,1.3183,1.3084,1.3086,1.3088,1.3161,0,1.2568,1.2659,1.2674,1.2754,1.2799,1.2801,1.2846,1.2881,1.29,1.2941,1.2963,1.301,1.2995,1.3013,1.3047,1.3071,1.3114,1.3066,1.3125,1.3127,1.3114,1.3196,1.3204,1.3272,1.3171,1.3173,1.3174,0,1.2664,1.2705,1.279,1.2831,1.2851,1.2891,1.2938,1.2977,1.3017,1.3028,1.3061,1.3067,1.312,1.3094,1.3168,1.3135,1.316,1.3175,1.3178,1.3184,1.3154,1.3205,1.3294,1.3304,1.319,1.3188,1.3187,0,1.2712,1.2789,1.2849,1.287,1.292,1.2948,1.2971,1.3008,1.3037,1.3078,1.3097,1.3144,1.317,1.3206,1.3224,1.3203,1.3296,1.3271,1.3307,1.3307,1.3327,1.3326,1.3422,1.3344,1.3344,1.3343,1.3343,0,1.2791,1.2843,1.2871,1.2908,1.2966,1.2982,1.3039,1.306,1.3093,1.3135,1.3139,1.3177,1.3199,1.3241,1.3255,1.3314,1.3326,1.3336,1.334,1.3336,1.3335,1.3353,1.3348,1.3346,1.3346,1.3345,1.3345,0,1.2855,1.2876,1.2941,1.2983,1.2995,1.3035,1.3071,1.3107,1.3126,1.3178,1.3191,1.322,1.327,1.3291,1.3352,1.3362,1.3429,1.3429,1.3415,1.3416,1.3451,1.3447,1.3562,1.3577,1.3489,1.349,1.3491,0,1.2904,1.2943,1.2989,1.3016,1.3039,1.3084,1.3113,1.313,1.316,1.3207,1.3238,1.3287,1.3327,1.3406,1.3432,1.3479,1.348,1.3517,1.3487,1.3482,1.348,1.3477,1.3481,1.3522,1.3523,1.3524,1.3524,0,1.2988,1.2996,1.3038,1.3083,1.3117,1.3154,1.319,1.3212,1.3235,1.3268,1.3318,1.335,1.3411,1.346,1.3507,1.3531,1.3531,1.3533,1.3544,1.3541,1.3531,1.3536,1.343,1.3531,1.353,1.353,1.3529,1.3529,1.3046,1.308,1.3117,1.3163,1.3192,1.3225,1.326,1.3283,1.3325,1.3375,1.3383,1.3436,1.3474,1.3538,1.3563,1.3604,1.3595,1.3611,1.3615,1.3619,1.362,1.3524,1.3613,1.3613,1.3613,1.3613,1.3613,0,1.313,1.3153,1.3195,1.3244,1.3281,1.3277,1.3316,1.3347,1.3393,1.3428,1.3467,1.3524,1.3571,1.3601,1.3648,1.3676,1.3677,1.3687,1.3686,1.3691,1.3626,1.3612,1.3685,1.3685,1.3685,1.3685,1.3685,1.3685,1.3177,1.3236,1.3248,1.332,1.3344,1.3395,1.3418,1.3448,1.3476,1.3539,1.3577,1.3596,1.3629,1.3678,1.3721,1.3729,1.3746,1.3757,1.3764,1.3703,1.3695,1.3688,1.3675,1.376,1.376,1.3825,1.3825,1.3826]}]]